Date String (YYYY-MM-DD hh:mm:ss) UTC,Instrument flags,Ambient pressure (hPa),Sample flow (lpm),Bypass flow (lpm),Sample temperature (°C),Ambient temperature (°C),ASC tube jacket temperature (°C),LED temperature (°C),Box temperature (°C),Sample RH (%),Span deviation,Mass concentration (μg/m³),Mass concentration (μg/m³),Mass concentration (μg/m³)
DateTimeUTC,F1_M11,P_M11,Q1_M11,Q2_M11,T1_M11,T2_M11,T3_M11,T4_M11,T5_M11,U1_M11,ZSPAN_M11,X2_M11,X0_M11,X1_M11
2021-11-14 15:00:00,,0829.2,5.01,0.00,22.9,22.2,00.0,31.9,24.8,12.6,0000.0,0002.20,0008.46,0000.91
2021-11-14 15:01:00,,0829.3,4.99,0.00,22.9,22.2,00.0,31.9,24.8,12.5,0000.0,0002.23,0008.61,0000.90
2021-11-14 15:02:00,,0829.3,5.00,0.00,22.9,22.2,00.0,31.9,24.7,12.6,0000.0,0002.27,0008.63,0000.91
2021-11-14 15:03:00,,0829.3,5.00,0.00,22.9,22.2,00.0,31.9,24.8,12.5,0000.0,0002.22,0008.61,0000.91
2021-11-14 15:04:00,,0829.2,4.99,0.00,22.9,22.2,00.0,31.9,24.8,12.4,0000.0,0002.22,0009.19,0000.92
2021-11-14 15:05:00,,0829.3,5.00,0.00,23.0,22.2,00.0,31.9,24.8,12.5,0000.0,0002.23,0009.83,0000.94
2021-11-14 15:06:00,,0829.2,5.01,0.00,23.0,22.2,00.0,31.9,24.8,12.5,0000.0,0002.18,0009.74,0000.94
2021-11-14 15:07:00,,0829.2,5.00,0.00,23.0,22.3,00.0,31.9,24.8,12.6,0000.0,0002.21,0010.52,0000.95
2021-11-14 15:08:00,,0829.2,4.99,0.00,23.0,22.3,00.0,31.9,24.8,12.7,0000.0,0002.20,0010.50,0000.96
2021-11-14 15:09:00,,0828.8,5.00,0.00,23.0,22.3,00.0,32.0,24.9,12.7,0000.0,0002.23,0010.29,0000.97
2021-11-14 15:10:00,,0828.9,5.00,0.00,23.0,22.3,00.0,32.0,24.9,12.7,0000.0,0002.30,0010.46,0000.97
2021-11-14 15:11:00,,0829.0,5.01,0.00,23.1,22.3,00.0,32.0,24.9,12.7,0000.0,0002.30,0010.83,0000.97
2021-11-14 15:12:00,,0829.1,5.01,0.00,23.1,22.4,00.0,32.0,24.9,12.7,0000.0,0002.34,0010.98,0000.97
2021-11-14 15:13:00,,0829.1,4.99,0.00,23.1,22.4,00.0,32.0,24.9,12.7,0000.0,0002.30,0010.88,0000.97
2021-11-14 15:14:00,,0828.9,5.01,0.00,23.1,22.4,00.0,32.0,25.0,12.6,0000.0,0002.30,0010.94,0000.96
2021-11-14 15:15:00,,0828.9,5.02,0.00,23.1,22.4,00.0,32.0,25.0,12.5,0000.0,0002.28,0010.47,0000.94
2021-11-14 15:16:00,,0828.8,4.99,0.00,23.1,22.5,00.0,32.0,25.0,12.5,0000.0,0002.27,0009.76,0000.92
2021-11-14 15:17:00,,0828.9,5.00,0.00,23.2,22.5,00.0,32.1,25.0,12.6,0000.0,0002.30,0009.75,0000.92
2021-11-14 15:18:00,,0829.0,5.00,0.00,23.2,22.5,00.0,32.1,25.0,12.6,0000.0,0002.28,0008.84,0000.90
2021-11-14 15:19:00,,0829.0,4.98,0.00,23.2,22.5,00.0,32.1,25.1,12.7,0000.0,0002.30,0008.61,0000.89
2021-11-14 15:20:00,,0829.0,5.01,0.00,23.2,22.5,00.0,32.1,25.1,12.7,0000.0,0002.33,0008.31,0000.87
2021-11-14 15:21:00,,0828.9,5.00,0.00,23.2,22.5,00.0,32.1,25.1,12.7,0000.0,0002.35,0008.36,0000.88
2021-11-14 15:22:00,,0829.0,4.99,0.00,23.2,22.5,00.0,32.1,25.1,12.7,0000.0,0002.35,0008.34,0000.88
2021-11-14 15:23:00,,0829.1,5.00,0.00,23.2,22.6,00.0,32.2,25.1,12.7,0000.0,0002.32,0008.15,0000.87
2021-11-14 15:24:00,,0828.9,5.00,0.00,23.3,22.6,00.0,32.2,25.1,12.6,0000.0,0002.37,0008.16,0000.87
2021-11-14 15:25:00,,0828.7,5.00,0.00,23.3,22.6,00.0,32.2,25.1,12.6,0000.0,0002.38,0008.40,0000.88
2021-11-14 15:26:00,,0829.0,5.01,0.00,23.3,22.6,00.0,32.2,25.1,12.5,0000.0,0002.41,0008.53,0000.90
2021-11-14 15:27:00,,0829.0,5.00,0.00,23.3,22.6,00.0,32.2,25.1,12.5,0000.0,0002.44,0008.58,0000.90
2021-11-14 15:28:00,,0829.2,5.00,0.00,23.3,22.6,00.0,32.2,25.1,12.6,0000.0,0002.41,0008.82,0000.90
2021-11-14 15:29:00,,0828.9,5.02,0.00,23.3,22.6,00.0,32.2,25.1,12.5,0000.0,0002.41,0008.68,0000.90
2021-11-14 15:30:00,,0829.0,4.98,0.00,23.3,22.6,00.0,32.2,25.1,12.5,0000.0,0002.35,0008.60,0000.89
2021-11-14 15:31:00,,0829.0,5.01,0.00,23.4,22.6,00.0,32.3,25.2,12.5,0000.0,0002.23,0008.84,0000.88
2021-11-14 15:32:00,,0829.1,5.00,0.00,23.4,22.7,00.0,32.3,25.2,12.6,0000.0,0002.20,0009.20,0000.87
2021-11-14 15:33:00,,0828.9,5.00,0.00,23.4,22.7,00.0,32.3,25.2,12.6,0000.0,0002.15,0008.92,0000.87
2021-11-14 15:34:00,,0828.8,4.99,0.00,23.4,22.7,00.0,32.3,25.3,12.5,0000.0,0002.10,0009.14,0000.87
2021-11-14 15:35:00,,0828.8,5.01,0.00,23.4,22.7,00.0,32.3,25.3,12.6,0000.0,0002.10,0009.04,0000.88
2021-11-14 15:36:00,,0828.8,5.00,0.00,23.5,22.7,00.0,32.3,25.3,12.8,0000.0,0002.14,0009.21,0000.88
2021-11-14 15:37:00,,0828.7,4.99,0.00,23.5,22.8,00.0,32.3,25.3,12.8,0000.0,0002.16,0009.26,0000.87
2021-11-14 15:38:00,,0828.7,5.00,0.00,23.5,22.8,00.0,32.4,25.3,12.8,0000.0,0002.17,0009.12,0000.87
2021-11-14 15:39:00,,0828.5,5.00,0.00,23.5,22.8,00.0,32.4,25.4,12.8,0000.0,0002.21,0009.46,0000.87
2021-11-14 15:40:00,,0828.5,4.99,0.00,23.5,22.8,00.0,32.4,25.3,12.7,0000.0,0002.25,0009.52,0000.88
2021-11-14 15:41:00,,0829.0,5.00,0.00,23.5,22.8,00.0,32.4,25.3,12.7,0000.0,0002.30,0009.47,0000.89
2021-11-14 15:42:00,,0828.7,5.00,0.00,23.5,22.8,00.0,32.4,25.3,12.8,0000.0,0002.32,0009.25,0000.90
2021-11-14 15:43:00,,0828.6,5.00,0.00,23.6,22.8,00.0,32.4,25.4,12.8,0000.0,0002.34,0009.26,0000.89
2021-11-14 15:44:00,,0828.6,4.99,0.00,23.6,22.9,00.0,32.5,25.5,12.8,0000.0,0002.38,0009.21,0000.91
2021-11-14 15:45:00,,0828.9,5.01,0.00,23.6,22.9,00.0,32.5,25.5,12.8,0000.0,0002.45,0009.00,0000.92
2021-11-14 15:46:00,,0828.8,5.00,0.00,23.6,22.9,00.0,32.5,25.5,12.8,0000.0,0002.49,0009.43,0000.92
2021-11-14 15:47:00,,0828.6,5.00,0.00,23.6,22.9,00.0,32.5,25.5,12.8,0000.0,0002.51,0009.04,0000.92
2021-11-14 15:48:00,,0828.4,4.99,0.00,23.7,22.9,00.0,32.5,25.5,12.8,0000.0,0002.43,0009.13,0000.92
2021-11-14 15:49:00,,0828.3,5.00,0.00,23.7,23.0,00.0,32.5,25.5,12.8,0000.0,0002.45,0009.64,0000.92
2021-11-14 15:50:00,,0828.3,5.00,0.00,23.7,23.0,00.0,32.6,25.6,12.9,0000.0,0002.42,0008.95,0000.93
2021-11-14 15:51:00,,0828.2,4.99,0.00,23.7,23.0,00.0,32.6,25.6,12.9,0000.0,0002.43,0009.04,0000.93
2021-11-14 15:52:00,,0828.1,5.00,0.00,23.8,23.0,00.0,32.6,25.6,13.0,0000.0,0002.43,0009.39,0000.95
2021-11-14 15:53:00,,0828.1,5.00,0.00,23.8,23.0,00.0,32.6,25.6,12.9,0000.0,0002.51,0009.48,0000.96
2021-11-14 15:54:00,,0828.1,5.01,0.00,23.8,23.1,00.0,32.6,25.6,12.9,0000.0,0002.50,0008.96,0000.98
2021-11-14 15:55:00,,0828.1,4.99,0.00,23.8,23.1,00.0,32.7,25.6,12.9,0000.0,0002.47,0008.98,0000.97
2021-11-14 15:56:00,,0828.1,5.02,0.00,23.8,23.1,00.0,32.7,25.7,12.9,0000.0,0002.46,0008.95,0000.98
2021-11-14 15:57:00,,0828.0,4.99,0.00,23.8,23.2,00.0,32.7,25.7,12.9,0000.0,0002.41,0008.50,0000.98
2021-11-14 15:58:00,,0828.1,4.99,0.00,23.9,23.2,00.0,32.7,25.7,12.9,0000.0,0002.34,0008.95,0000.98
2021-11-14 15:59:00,,0828.1,5.00,0.00,23.9,23.2,00.0,32.7,25.7,13.0,0000.0,0002.39,0008.52,0000.99
